Temperature
8 8 8 8 8 8 8 8 8 8 9 9 9 9 9 9 9 10 10 10 10 10 10 11 11 11 12 12 12 12 12 12 12 12 12 12 12 12 13 13 12 12 12
8 8 8 7 7 8 8 8 8 8 8 8 8 8 8 8 9 9 9 9 10 10 10 10 11 11 11 11 11 11 11 12 12 12 11 11 12 12 12 12 12 12 12
7 7 7 7 7 7 7 7 7 7 7 7 7 7 8 8 8 8 9 9 9 9 9 10 10 10 10 11 11 11 11 11 11 11 11 11 11 11 12 12 12 12 12
6 6 6 6 6 6 6 6 6 6 7 7 7 7 7 7 7 8 8 8 8 9 9 9 9 10 10 10 10 10 10 10 10 10 10 10 10 10 10 10 11 11 11
6 6 5 5 5 5 6 6 6 6 6 6 6 7 7 6 6 7 7 8 8 8 8 8 9 9 9 9 9 10 10 10 10 10 10 10 10 10 9 9 9 10 10
5 5 5 5 5 5 5 6 6 6 6 6 6 6 6 6 6 6 7 7 7 7 8 8 8 8 8 9 9 9 9 9 9 9 9 9 9 9 9 9 8 9 9
5 5 5 4 5 5 5 5 5 5 5 5 5 5 6 6 6 6 6 6 6 7 7 7 7 7 8 8 8 8 8 8 8 8 8 8 8 8 8 8 8 8 8
5 4 4 4 4 4 4 5 5 5 5 5 5 5 5 5 5 5 5 5 6 6 6 7 7 7 7 7 7 7 7 7 7 8 8 8 8 8 8 8 8 7 7
4 4 4 4 4 4 4 4 4 4 4 5 4 5 5 5 5 5 5 5 5 5 5 6 6 6 6 6 6 7 7 7 7 7 7 7 7 7 7 7 7 7 6
4 4 4 4 4 3 3 4 4 4 4 4 4 4 4 4 4 4 4 4 5 5 5 5 5 5 6 6 6 6 6 6 6 6 6 6 7 7 6 7 7 6 6
4 4 4 4 3 3 3 3 4 4 4 4 4 4 4 4 4 4 4 4 4 4 5 5 5 5 5 5 5 5 5 6 6 6 6 6 6 6 6 6 6 6 6
4 4 4 3 3 3 3 3 3 3 3 3 3 3 3 4 4 4 4 4 4 4 4 4 4 4 5 5 5 5 5 5 5 5 5 5 5 5 5 5 5 5 5
4 4 4 3 3 3 3 3 3 3 3 3 3 3 3 3 3 3 3 3 4 4 4 4 4 4 4 4 4 4 4 4 4 4 4 4 4 4 4 4 4 4 4
4 4 4 3 3 3 3 2 3 3 3 3 3 3 3 3 3 3 3 3 3 3 3 3 3 3 3 3 3 4 3 3 3 3 4 4 4 4 4 4 4 4 4
4 4 4 3 3 3 3 2 2 2 2 3 3 3 3 3 3 3 3 3 3 3 3 3 3 2 3 2 2 3 3 3 3 3 3 3 3 3 3 3 3 3 3
4 4 4 3 3 3 3 2 2 2 2 2 2 2 2 2 2 2 2 2 2 2 2 2 2 2 2 2 2 2 2 2 2 2 3 2 2 3 2 2 2 2 2
4 4 4 4 3 3 3 2 2 2 2 2 2 2 2 2 2 2 2 2 2 2 2 2 2 2 2 2 1 1 2 2 2 2 2 2 2 2 2 2 2 2 1
5 4 4 4 3 3 3 2 2 2 2 2 2 2 2 2 2 2 1 1 1 1 1 1 1 1 1 1 1 1 1 1 1 1 1 1 1 1 1 1 1 1 1
5 4 4 4 3 3 3 2 2 2 2 2 2 1 1 1 1 1 1 1 1 1 1 1 1 1 1 1 1 0 1 1 1 1 1 1 1 1 1 1 1 1 1
5 4 4 4 3 3 2 2 2 2 2 2 1 1 1 1 1 1 1 1 0 0 0 0 -0 -0 0 0 0 -0 -0 0 0 0 0 0 0 0 0 0 0 0 0
4 4 4 4 3 3 2 2 2 2 2 1 1 1 1 1 0 0 0 -0 -0 -0 -0 -0 -1 -1 -1 -1 -1 -1 -1 -1 -0 -0 -0 -0 -0 -0 -0 -0 -0 -0 -1
4 4 4 3 3 3 2 2 2 2 1 1 1 1 1 0 0 -0 -0 -0 -1 -1 -1 -1 -1 -1 -1 -1 -1 -1 -1 -1 -1 -1 -1 -1 -1 -1 -1 -1 -1 -1 -1
4 4 3 3 3 2 2 2 2 1 1 1 1 1 0 0 -0 -0 -0 -1 -1 -1 -1 -1 -1 -1 -2 -2 -2 -2 -2 -2 -2 -1 -1 -1 -1 -1 -1 -1 -1 -1 -1
4 3 3 3 3 2 2 2 1 1 1 1 1 1 0 0 -0 -1 -1 -1 -1 -2 -2 -2 -2 -2 -2 -2 -2 -2 -2 -2 -2 -2 -2 -2 -2 -2 -2 -1 -2 -2 -2
3 3 3 3 2 2 2 1 1 1 1 1 0 0 -0 -0 -0 -1 -1 -1 -2 -2 -3 -3 -3 -3 -3 -3 -3 -3 -3 -3 -3 -3 -2 -2 -2 -2 -2 -2 -2 -2 -2
3 3 3 2 2 2 2 1 1 1 1 0 0 -0 -1 -1 -1 -1 -1 -2 -2 -2 -3 -3 -3 -3 -3 -4 -3 -3 -3 -3 -3 -3 -3 -3 -3 -3 -3 -3 -3 -3 -3
Wind_Speed
3 4 5 6 6 6 6 6 6 6 4 3 3 3 3 3 3 3 4 4 4 4 4 4 4 5 5 6 6 6 6 5 4 2 3 3 5 6 6 6 5 6 7
4 6 6 7 6 6 7 6 6 6 5 4 3 3 3 2 3 3 3 4 4 3 4 4 4 5 5 5 5 5 4 4 4 3 2 2 2 4 6 5 6 6 5
3 5 6 6 6 7 7 7 7 7 6 5 3 3 2 2 2 3 2 3 4 3 3 4 4 4 5 5 5 6 7 5 4 4 4 3 4 2 2 4 6 6 5
2 4 5 6 7 7 7 7 7 6 6 5 3 3 2 3 4 3 3 3 3 3 2 3 3 4 4 5 6 6 6 6 5 4 4 3 2 2 2 2 4 5 6
2 3 4 5 6 7 7 6 6 7 6 5 4 3 3 3 3 3 2 3 3 2 2 2 3 4 4 4 5 4 5 4 5 4 3 3 3 2 3 4 3 3 4
2 3 4 5 6 7 7 6 7 7 6 5 4 3 4 4 3 3 2 2 2 2 2 2 2 3 3 4 4 4 5 5 4 4 4 4 3 3 3 4 5 4 4
2 3 5 6 7 8 8 7 7 7 6 5 4 4 4 3 4 3 2 2 2 2 3 3 3 3 3 4 4 3 3 4 5 5 4 4 4 3 3 4 4 5 3
2 3 4 5 6 7 8 7 7 7 6 5 5 4 4 3 3 3 2 2 3 3 3 4 3 3 3 3 3 3 3 3 4 5 5 4 4 3 3 3 4 4 4
3 3 4 4 5 6 7 7 7 7 6 5 5 5 4 4 3 3 2 2 3 3 3 3 3 3 3 3 3 3 3 3 4 4 4 4 3 3 2 3 3 5 6
3 3 3 4 4 5 6 6 5 6 6 5 4 4 4 4 3 2 2 2 3 3 3 3 3 3 3 3 2 3 3 3 3 3 3 3 2 2 2 3 3 4 5
4 3 3 3 4 5 5 6 6 6 6 5 5 4 4 3 3 2 2 2 3 3 3 2 2 2 2 2 2 2 3 2 3 3 3 3 2 2 2 3 3 4 4
3 3 2 3 4 4 5 6 6 6 6 5 5 4 4 4 4 3 3 3 2 2 2 2 1 1 1 2 2 2 3 3 3 3 3 3 3 3 3 3 4 4 4
2 2 2 3 3 4 4 5 5 6 6 5 5 4 4 4 4 4 3 3 2 3 2 2 1 1 2 2 2 2 2 3 4 4 4 4 3 4 3 4 4 3 4
3 2 3 3 4 4 4 4 5 5 5 5 5 5 4 4 4 4 3 3 3 3 3 2 2 2 2 2 2 2 2 2 2 2 3 4 5 5 4 4 4 3 3
4 4 4 3 3 3 4 4 4 5 5 5 5 5 4 4 4 4 4 3 3 3 3 3 2 2 2 1 1 1 1 1 1 1 2 3 3 4 3 3 3 3 4
5 5 4 4 3 3 3 3 4 4 4 4 5 5 5 5 4 4 4 4 4 4 4 4 3 3 3 4 3 1 0 0 1 1 2 3 2 2 3 4 5 4 5
6 6 5 5 4 3 3 2 3 3 4 4 5 5 5 5 5 4 4 4 4 3 4 4 3 3 4 5 4 3 1 1 2 2 2 3 3 3 4 4 5 6 7
6 6 5 5 3 2 2 2 2 2 3 3 4 5 5 5 5 4 4 4 3 3 3 4 4 3 4 4 3 4 2 1 2 3 3 4 4 4 4 3 4 5 6
6 6 5 4 3 3 2 1 2 2 2 3 4 4 4 4 5 5 4 3 3 3 4 4 4 3 4 4 4 4 1 2 3 3 3 3 4 5 5 3 4 5 6
5 5 4 3 3 3 2 1 2 2 3 4 4 4 3 4 4 4 4 4 3 3 4 4 4 4 4 5 5 5 1 2 2 3 3 4 5 5 5 4 4 6 6
4 4 4 4 5 4 3 3 3 4 5 4 3 3 3 3 3 4 4 4 4 4 4 4 4 4 4 5 6 6 2 2 3 3 3 3 5 5 5 4 4 6 5
4 4 4 4 4 4 4 4 5 5 4 3 3 3 3 3 2 3 3 3 3 3 4 4 4 4 4 5 6 7 6 5 3 4 4 4 5 5 5 4 4 5 4
4 4 4 4 4 4 5 5 6 4 3 2 3 3 3 2 2 2 3 3 3 3 3 3 4 4 4 5 8 8 8 8 5 4 5 5 4 4 3 4 4 3 3
4 4 4 4 5 5 5 6 5 3 3 3 3 3 2 2 3 2 2 2 2 3 3 4 4 5 5 5 5 5 5 6 5 4 4 5 4 3 3 3 3 2 3
4 4 4 5 6 5 5 5 4 3 4 4 4 3 3 3 3 3 3 3 3 4 4 3 3 4 5 6 9 7 5 4 4 4 2 3 3 3 3 3 2 3 3
4 4 5 5 5 4 5 4 4 4 4 4 4 3 3 3 3 3 4 5 5 7 7 6 6 5 7 9 10 9 9 8 6 4 3 3 3 3 3 3 4 3 3
Wind_Direction
326 355 359 355 351 348 347 341 335 327 327 324 318 305 293 291 288 282 291 290 287 273 250 248 241 229 220 218 214 208 208 213 202 204 246 248 231 220 214 209 205 207 209
2 2 359 358 356 349 345 340 335 329 325 313 299 282 278 272 266 269 292 304 296 284 260 247 241 234 228 221 220 211 209 213 195 184 184 245 251 232 222 212 207 210 209
353 348 349 348 348 345 337 333 328 325 321 317 311 313 305 306 297 300 299 299 300 290 276 264 247 241 229 221 218 215 205 212 211 193 184 194 223 239 235 219 214 211 212
344 336 335 337 337 330 325 323 323 323 320 321 321 317 311 292 283 285 283 291 302 306 302 282 264 251 242 228 221 221 218 203 213 215 209 213 197 198 235 234 219 220 222
308 318 322 324 327 326 325 324 324 323 323 324 317 306 294 276 279 286 293 303 313 311 307 285 264 257 252 238 224 223 227 216 214 215 213 223 223 212 216 241 237 245 232
308 318 322 327 329 330 331 332 334 332 329 330 324 320 303 296 297 298 294 300 296 290 287 276 256 256 256 247 234 222 223 223 217 215 210 207 200 207 217 229 233 242 244
307 320 327 332 334 334 333 336 339 337 335 330 328 329 320 305 294 290 285 283 280 282 284 277 259 258 252 248 240 227 226 231 221 217 219 218 222 211 224 227 236 247 254
298 305 314 324 328 328 331 335 338 336 337 337 331 327 328 319 307 299 293 288 285 283 283 272 262 261 261 256 242 224 227 237 237 231 221 221 227 217 222 225 230 248 255
285 294 313 324 326 328 330 332 335 336 338 337 335 338 336 325 316 309 300 300 294 288 284 275 274 268 258 252 249 232 228 230 235 234 227 225 229 216 221 230 226 228 246
281 293 310 322 325 326 331 335 333 333 331 334 335 339 327 319 318 327 318 300 296 291 288 288 281 276 266 252 245 250 238 225 242 235 223 224 227 214 222 228 242 242 245
265 277 297 315 323 331 336 337 339 342 342 342 341 341 333 332 340 339 325 311 314 319 308 295 288 286 287 281 256 257 247 232 243 237 220 219 209 209 226 229 234 241 243
250 259 286 316 330 332 335 335 342 344 339 339 347 355 355 356 358 345 334 333 333 323 314 316 322 315 294 271 260 275 271 250 244 241 224 225 221 217 226 227 236 243 246
257 271 290 302 310 318 328 330 336 337 339 346 355 1 0 359 352 348 346 348 346 344 342 339 319 299 293 289 262 258 268 257 240 232 224 225 218 228 236 235 238 247 259
244 253 271 283 298 312 324 329 332 335 341 350 358 2 355 350 348 347 346 347 347 342 342 343 333 319 301 291 276 247 249 256 254 239 234 234 228 228 228 233 235 243 253
245 246 258 273 291 308 319 327 333 339 345 355 359 355 350 352 357 355 351 354 357 353 354 358 352 342 327 310 307 241 231 233 265 270 255 248 251 256 252 255 248 245 248
244 243 250 257 270 285 302 317 330 337 349 357 354 351 355 355 357 357 360 6 3 359 6 1 349 350 343 352 354 1 124 257 259 279 290 275 251 270 283 282 281 273 255
242 238 240 243 251 260 272 293 308 329 348 353 352 351 353 353 351 358 9 4 355 358 355 347 346 347 342 346 353 354 348 312 272 262 265 276 272 266 252 273 288 282 278
239 239 235 238 245 249 269 285 309 326 336 342 345 346 349 349 352 2 1 350 346 350 346 342 341 337 333 344 348 350 346 309 285 276 262 255 263 263 267 260 275 274 274
230 231 226 221 223 233 243 268 307 318 328 329 328 332 340 344 350 354 349 346 352 357 353 348 348 339 331 338 340 346 313 296 289 281 279 270 262 279 289 273 272 281 279
223 221 219 207 213 228 211 220 274 299 299 300 306 316 332 339 340 338 340 344 352 352 350 350 344 336 327 336 342 338 307 300 299 296 290 285 282 287 291 264 259 268 278
222 211 206 211 220 216 199 224 255 270 278 286 299 311 322 328 330 336 337 339 345 347 347 343 338 335 332 335 338 338 329 308 304 302 301 293 301 296 295 286 267 273 286
226 212 212 230 228 207 201 232 252 262 273 277 284 299 309 315 328 334 333 333 337 340 335 333 331 332 330 333 332 334 330 321 302 297 301 302 306 300 300 298 306 311 303
233 221 219 236 241 218 206 229 252 256 256 260 266 280 301 314 314 313 319 326 328 323 316 317 322 326 328 331 334 335 332 326 316 302 307 312 312 309 298 305 319 322 301
236 225 221 238 252 242 229 232 245 240 236 250 262 265 274 295 305 299 294 300 298 300 307 312 315 319 322 323 326 325 323 324 318 307 306 314 316 319 321 318 307 300 294
239 223 225 237 248 250 247 244 239 223 234 249 260 266 263 269 285 294 282 278 269 274 283 284 292 299 302 306 316 321 318 317 311 316 319 320 317 318 315 313 307 302 303
234 233 235 240 247 245 251 250 235 219 225 244 254 259 268 270 272 288 305 297 291 296 293 290 290 290 295 306 310 313 319 323 323 327 310 309 303 291 291 294 298 293 297
Height
1497 1495 1493 1491 1489 1487 1485 1483 1481 1479 1477 1476 1474 1473 1472 1472 1473 1474 1475 1476 1477 1478 1480 1481 1483 1484 1485 1487 1489 1491 1493 1495 1497 1499 1500 1501 1502 1503 1504 1505 1507 1508 1509
1494 1492 1490 1488 1486 1484 1481 1479 1477 1475 1473 1472 1470 1469 1468 1468 1468 1469 1470 1471 1472 1473 1474 1476 1477 1479 1480 1481 1483 1485 1486 1489 1492 1493 1494 1495 1496 1496 1498 1499 1501 1502 1503
1492 1491 1489 1486 1484 1481 1479 1476 1474 1472 1470 1468 1466 1465 1464 1464 1464 1464 1464 1466 1467 1468 1469 1470 1472 1473 1475 1476 1477 1480 1481 1483 1485 1487 1489 1490 1489 1490 1491 1493 1495 1496 1497
1491 1490 1487 1485 1482 1479 1476 1473 1471 1469 1466 1464 1462 1461 1460 1459 1459 1459 1460 1461 1462 1463 1464 1465 1466 1468 1469 1470 1472 1474 1476 1477 1479 1481 1483 1484 1484 1485 1485 1487 1488 1490 1491
1490 1488 1486 1483 1480 1477 1474 1471 1468 1465 1463 1461 1459 1457 1456 1456 1455 1455 1456 1456 1457 1458 1459 1460 1461 1463 1464 1465 1467 1468 1470 1471 1473 1475 1476 1478 1479 1479 1480 1480 1482 1483 1485
1488 1486 1484 1481 1478 1475 1472 1468 1465 1463 1460 1458 1456 1454 1452 1452 1451 1451 1451 1451 1452 1453 1454 1455 1456 1457 1459 1459 1461 1462 1464 1465 1467 1469 1470 1471 1472 1473 1474 1475 1476 1476 1478
1486 1484 1482 1479 1475 1472 1469 1466 1463 1460 1458 1455 1453 1451 1449 1448 1448 1447 1447 1447 1448 1449 1449 1451 1451 1452 1453 1454 1455 1456 1458 1460 1461 1462 1464 1465 1466 1468 1469 1470 1470 1471 1471
1485 1483 1480 1477 1474 1471 1467 1464 1461 1458 1455 1453 1450 1448 1446 1445 1444 1444 1444 1444 1445 1445 1446 1447 1447 1448 1448 1449 1450 1451 1452 1455 1456 1457 1458 1459 1461 1462 1464 1465 1466 1465 1466
1483 1481 1479 1476 1473 1469 1466 1463 1459 1456 1453 1450 1448 1445 1444 1442 1441 1441 1441 1441 1442 1442 1443 1443 1444 1444 1444 1444 1445 1445 1447 1449 1450 1451 1453 1454 1455 1456 1458 1460 1461 1462 1460
1482 1480 1477 1474 1471 1468 1465 1462 1459 1455 1452 1449 1446 1443 1442 1441 1440 1439 1439 1439 1439 1439 1439 1440 1440 1440 1440 1440 1440 1441 1442 1443 1445 1446 1447 1448 1449 1450 1452 1454 1455 1456 1455
1480 1478 1476 1473 1470 1467 1464 1461 1457 1454 1451 1448 1445 1442 1441 1439 1438 1437 1437 1437 1437 1437 1436 1436 1436 1436 1436 1435 1436 1436 1437 1437 1439 1440 1441 1442 1443 1445 1446 1448 1449 1449 1449
1479 1477 1474 1472 1469 1466 1463 1459 1456 1453 1450 1447 1444 1442 1440 1438 1437 1436 1435 1435 1435 1434 1434 1433 1433 1432 1432 1431 1431 1432 1432 1432 1433 1434 1436 1436 1438 1439 1441 1441 1442 1442 1443
1477 1475 1473 1470 1468 1465 1462 1458 1455 1452 1450 1447 1444 1441 1439 1437 1436 1434 1434 1433 1433 1431 1431 1430 1429 1428 1428 1427 1427 1427 1427 1428 1428 1429 1430 1431 1433 1433 1434 1435 1436 1436 1437
1475 1473 1471 1469 1466 1464 1461 1458 1455 1452 1449 1446 1443 1441 1439 1437 1435 1434 1432 1431 1430 1429 1428 1426 1425 1425 1424 1424 1423 1423 1423 1424 1424 1424 1425 1426 1427 1428 1429 1429 1430 1430 1430
1473 1472 1470 1468 1465 1463 1460 1457 1454 1451 1448 1445 1442 1440 1438 1436 1434 1432 1431 1429 1428 1427 1425 1423 1422 1422 1421 1420 1420 1420 1419 1419 1419 1420 1421 1422 1422 1423 1424 1424 1424 1424 1424
1470 1470 1468 1466 1464 1461 1459 1456 1453 1450 1447 1444 1441 1439 1437 1435 1433 1431 1429 1428 1426 1425 1423 1421 1420 1419 1418 1418 1417 1417 1416 1416 1416 1416 1416 1417 1418 1418 1419 1419 1419 1419 1419
1468 1467 1466 1464 1462 1460 1457 1455 1452 1449 1446 1444 1441 1438 1436 1434 1431 1429 1428 1426 1425 1423 1421 1420 1418 1417 1416 1415 1415 1414 1414 1413 1413 1413 1412 1413 1413 1413 1414 1414 1414 1414 1414
1465 1464 1463 1462 1460 1458 1456 1454 1451 1449 1446 1443 1440 1438 1435 1433 1431 1428 1427 1425 1423 1421 1419 1418 1416 1415 1414 1413 1413 1412 1411 1410 1410 1409 1409 1409 1408 1409 1409 1408 1408 1408 1408
1462 1462 1461 1460 1458 1457 1454 1452 1450 1447 1445 1442 1440 1437 1435 1433 1430 1428 1426 1424 1422 1420 1418 1416 1415 1413 1412 1411 1410 1409 1408 1407 1406 1406 1405 1405 1404 1404 1404 1404 1403 1402 1402
1459 1459 1458 1457 1456 1454 1452 1450 1448 1446 1444 1441 1439 1437 1435 1432 1430 1427 1425 1423 1421 1419 1417 1415 1414 1412 1410 1409 1408 1407 1405 1404 1403 1402 1401 1400 1399 1399 1399 1398 1397 1396 1395
1456 1456 1455 1454 1453 1452 1450 1448 1446 1444 1442 1440 1438 1436 1434 1432 1429 1427 1425 1422 1420 1418 1416 1414 1412 1411 1409 1407 1406 1404 1403 1401 1399 1397 1396 1395 1394 1394 1394 1393 1393 1391 1391
1453 1452 1451 1451 1450 1449 1447 1446 1444 1442 1440 1439 1437 1435 1433 1431 1429 1427 1424 1422 1420 1417 1415 1412 1410 1409 1407 1405 1403 1402 1400 1398 1396 1394 1392 1391 1390 1390 1389 1389 1388 1387 1387
1449 1449 1448 1447 1447 1446 1444 1443 1442 1440 1438 1436 1434 1433 1431 1429 1427 1425 1423 1421 1418 1416 1413 1411 1409 1407 1405 1403 1401 1399 1397 1395 1393 1391 1390 1388 1387 1386 1385 1385 1384 1383 1382
1446 1445 1444 1443 1443 1442 1441 1440 1439 1437 1435 1434 1432 1430 1428 1427 1425 1423 1421 1419 1417 1414 1412 1410 1407 1405 1403 1401 1398 1396 1394 1392 1390 1388 1387 1385 1384 1383 1382 1380 1379 1378 1377
1442 1441 1440 1439 1439 1438 1437 1437 1435 1434 1432 1430 1429 1427 1425 1424 1422 1420 1419 1417 1415 1413 1411 1409 1406 1404 1401 1399 1397 1394 1392 1390 1388 1386 1384 1382 1380 1379 1378 1376 1375 1374 1373
1437 1437 1436 1435 1435 1434 1433 1432 1431 1430 1428 1426 1425 1424 1422 1420 1419 1417 1415 1414 1412 1410 1408 1406 1405 1402 1400 1397 1394 1392 1389 1387 1385 1383 1381 1379 1377 1376 1374 1373 1371 1370 1369